This is the latest recevied weather packets stored in our database for station/object KD8BMB. If no packets are shown the sender has not sent any weather packets the latest 10 day(s).
| Time | Temp. | Humidity | Pressure | Rain* | Wind** | Luminosity | Snow |
|---|---|---|---|---|---|---|---|
| 1777851702 | 14.44° C | 56% | 1007.4 hPa | 0 mm | - | 47 W/m² | - |
| 1777851398 | 14.44° C | 55% | 1007.3 hPa | 0 mm | - | 49 W/m² | - |
| 1777851094 | 14.44° C | 55% | 1007.3 hPa | 0 mm | - | 52 W/m² | - |
| 1777850791 | 15° C | 54% | 1007.2 hPa | 0 mm | - | 55 W/m² | - |
| 1777850489 | 15° C | 53% | 1007.4 hPa | 0 mm | - | 71 W/m² | - |
| 1777850187 | 15° C | 53% | 1007.4 hPa | 0 mm | - | 81 W/m² | - |
| 1777849883 | 15° C | 53% | 1007.4 hPa | 0 mm | - | 74 W/m² | - |
| 1777849580 | 15° C | 54% | 1007.4 hPa | 0 mm | - | 34 W/m² | - |
| 1777849277 | 15° C | 54% | 1007.5 hPa | 0 mm | - | 32 W/m² | - |
| 1777848975 | 15° C | 55% | 1007.6 hPa | 0 mm | - | 29 W/m² | - |
| 1777848674 | 15° C | 55% | 1007.3 hPa | 0 mm | - | 28 W/m² | - |
| 1777848371 | 15° C | 53% | 1007.5 hPa | 0 mm | - | 39 W/m² | - |
| 1777848069 | 15° C | 52% | 1007.4 hPa | 0 mm | - | 35 W/m² | - |
| 1777847767 | 15.56° C | 51% | 1007.6 hPa | 0 mm | - | 37 W/m² | - |
| 1777847463 | 15.56° C | 50% | 1007.6 hPa | 0 mm | - | 46 W/m² | - |
| 1777847161 | 15.56° C | 50% | 1007.7 hPa | 0 mm | - | 38 W/m² | - |
| 1777846858 | 15.56° C | 49% | 1007.7 hPa | 0 mm | - | 36 W/m² | - |
| 1777846556 | 15.56° C | 48% | 1007.8 hPa | 0 mm | - | 34 W/m² | - |
| 1777846253 | 15.56° C | 48% | 1007.6 hPa | 0 mm | - | 33 W/m² | - |
| 1777845950 | 16.11° C | 47% | 1007.6 hPa | 0 mm | - | 35 W/m² | - |
| 1777845647 | 16.11° C | 47% | 1007.9 hPa | 0 mm | - | 52 W/m² | - |
| 1777845344 | 16.11° C | 48% | 1007.7 hPa | 0 mm | - | 50 W/m² | - |
| 1777845040 | 16.11° C | 48% | 1007.8 hPa | 0 mm | - | 58 W/m² | - |
| 1777844739 | 16.11° C | 48% | 1007.6 hPa | 0 mm | - | 70 W/m² | - |
| 1777844435 | 16.67° C | 47% | 1007.6 hPa | 0 mm | - | 63 W/m² | - |
* Rain latest hour (hover to see other rain measurements)
** Current wind speed in m/s (hover to see current wind gust speed)